• In Hungary
  • List of Countries
  • For 7 days
  • Water Temperature
  • Satellite Maps
  • Weather Map
  • News
  • Weather Widgets
  • user-avatar
    Login

    Hourly Weather Stanislavy

    Today, 22 September, Saturday

    Time Temperature Precipitation Wind Pressure Humidity
    00:00 +18°C° 0 mm 3 mps 740 mmHg 58%
    01:00 +17°C° 0 mm 3 mps 740 mmHg 61%
    02:00 +16°C° 0 mm 3 mps 740 mmHg 63%
    03:00 +16°C° 0 mm 3 mps 739 mmHg 64%
    04:00 +16°C° 0 mm 3 mps 739 mmHg 66%
    05:00 +15°C° 0 mm 4 mps 739 mmHg 67%
    06:00 +17°C° 0 mm 4 mps 739 mmHg 66%
    07:00 +18°C° 0 mm 4 mps 740 mmHg 65%
    08:00 +19°C° 0 mm 5 mps 740 mmHg 64%
    09:00 +17°C° 0.1 mm 5 mps 741 mmHg 68%
    10:00 +17°C° 0.1 mm 6 mps 742 mmHg 72%
    11:00 +17°C° 0.1 mm 7 mps 742 mmHg 76%
    12:00 +16°C° 0.1 mm 6 mps 742 mmHg 77%
    13:00 +14°C° 0.1 mm 6 mps 743 mmHg 78%
    14:00 +13°C° 0.1 mm 5 mps 743 mmHg 79%
    15:00 +12°C° 0.6 mm 4 mps 743 mmHg 82%
    16:00 +12°C° 0.6 mm 4 mps 743 mmHg 84%
    17:00 +11°C° 0.6 mm 3 mps 743 mmHg 87%
    18:00 +11°C° 0.3 mm 3 mps 744 mmHg 89%
    19:00 +10°C° 0.3 mm 3 mps 744 mmHg 91%
    20:00 +10°C° 0.3 mm 3 mps 744 mmHg 94%
    21:00 +9°C° 0 mm 3 mps 744 mmHg 93%
    22:00 +9°C° 0 mm 3 mps 743 mmHg 93%
    23:00 +8°C° 0 mm 3 mps 743 mmHg 92%

    Tomorrow, 23 September, Sunday

    Time Temperature Precipitation Wind Pressure Humidity
    00:00 +8°C° 0 mm 3 mps 743 mmHg 91%
    01:00 +8°C° 0 mm 3 mps 743 mmHg 89%
    02:00 +8°C° 0 mm 3 mps 743 mmHg 87%
    03:00 +8°C° 0 mm 3 mps 743 mmHg 87%
    04:00 +8°C° 0 mm 3 mps 743 mmHg 87%
    05:00 +8°C° 0 mm 3 mps 743 mmHg 87%
    06:00 +9°C° 0 mm 3 mps 743 mmHg 85%
    07:00 +10°C° 0 mm 3 mps 743 mmHg 82%
    08:00 +11°C° 0 mm 4 mps 743 mmHg 79%
    09:00 +12°C° 0 mm 4 mps 743 mmHg 72%
    10:00 +14°C° 0 mm 5 mps 743 mmHg 65%
    11:00 +16°C° 0 mm 5 mps 743 mmHg 58%
    12:00 +16°C° 0.1 mm 5 mps 743 mmHg 55%
    13:00 +17°C° 0.1 mm 5 mps 743 mmHg 52%
    14:00 +17°C° 0.1 mm 6 mps 743 mmHg 50%
    15:00 +17°C° 0 mm 5 mps 742 mmHg 54%
    16:00 +17°C° 0 mm 4 mps 742 mmHg 58%
    17:00 +17°C° 0 mm 3 mps 741 mmHg 62%
    18:00 +16°C° 0 mm 3 mps 741 mmHg 64%
    19:00 +14°C° 0 mm 3 mps 741 mmHg 67%
    20:00 +13°C° 0 mm 3 mps 740 mmHg 69%
    21:00 +13°C° 0.2 mm 3 mps 740 mmHg 72%
    22:00 +13°C° 0.2 mm 4 mps 739 mmHg 74%
    23:00 +13°C° 0.2 mm 4 mps 738 mmHg 77%

    Day after tomorrow, 24 September, Monday

    Time Temperature Precipitation Wind Pressure Humidity
    00:00 +13°C° 0.1 mm 5 mps 737 mmHg 73%
    01:00 +14°C° 0.1 mm 7 mps 735 mmHg 68%
    02:00 +13°C° 0.1 mm 8 mps 734 mmHg 64%
    03:00 +13°C° 0.4 mm 8 mps 732 mmHg 68%
    04:00 +15°C° 0.4 mm 8 mps 731 mmHg 71%
    05:00 +15°C° 0.4 mm 8 mps 730 mmHg 75%
    06:00 +15°C° 0.8 mm 9 mps 730 mmHg 76%
    07:00 +14°C° 0.8 mm 10 mps 730 mmHg 78%
    08:00 +14°C° 0.8 mm 11 mps 730 mmHg 80%
    09:00 +13°C° 0.1 mm 11 mps 732 mmHg 79%
    10:00 +11°C° 0.1 mm 11 mps 733 mmHg 78%
    11:00 +8°C° 0.1 mm 12 mps 735 mmHg 76%
    12:00 +9°C° 0.1 mm 11 mps 736 mmHg 73%
    13:00 +11°C° 0.1 mm 11 mps 737 mmHg 70%
    14:00 +11°C° 0.1 mm 10 mps 738 mmHg 67%
    15:00 +11°C° 0.2 mm 10 mps 739 mmHg 68%
    16:00 +11°C° 0.2 mm 9 mps 739 mmHg 69%
    17:00 +10°C° 0.2 mm 9 mps 740 mmHg 70%
    18:00 +9°C° 0 mm 8 mps 740 mmHg 70%
    19:00 +9°C° 0 mm 8 mps 741 mmHg 70%
    20:00 +8°C° 0 mm 7 mps 741 mmHg 70%
    21:00 +6°C° 0 mm 7 mps 741 mmHg 71%
    22:00 +6°C° 0 mm 7 mps 742 mmHg 71%
    23:00 +6°C° 0 mm 7 mps 742 mmHg 72%

    25 September, Tuesday

    Time Temperature Precipitation Wind Pressure Humidity
    00:00 +6°C° 0.3 mm 8 mps 742 mmHg 75%
    01:00 +6°C° 0.3 mm 8 mps 743 mmHg 77%
    02:00 +6°C° 0.3 mm 9 mps 743 mmHg 80%
    03:00 +5°C° 0.7 mm 8 mps 744 mmHg 80%
    04:00 +5°C° 0.7 mm 8 mps 745 mmHg 81%
    05:00 +5°C° 0.7 mm 8 mps 745 mmHg 82%
    06:00 +5°C° 0 mm 8 mps 746 mmHg 80%
    07:00 +4°C° 0 mm 8 mps 747 mmHg 78%
    08:00 +4°C° 0 mm 8 mps 748 mmHg 76%
    09:00 +6°C° 0.1 mm 8 mps 748 mmHg 70%
    10:00 +7°C° 0.1 mm 8 mps 749 mmHg 64%
    11:00 +9°C° 0.1 mm 8 mps 749 mmHg 58%
    12:00 +9°C° 0.3 mm 8 mps 749 mmHg 57%
    13:00 +9°C° 0.3 mm 8 mps 750 mmHg 56%
    14:00 +10°C° 0.3 mm 8 mps 750 mmHg 54%
    15:00 +9°C° 0.1 mm 7 mps 750 mmHg 56%
    16:00 +9°C° 0.1 mm 7 mps 750 mmHg 58%
    17:00 +9°C° 0.1 mm 6 mps 751 mmHg 60%
    18:00 +8°C° 0 mm 6 mps 751 mmHg 63%
    19:00 +7°C° 0 mm 5 mps 752 mmHg 66%
    20:00 +6°C° 0 mm 4 mps 752 mmHg 69%
    21:00 +5°C° 0 mm 4 mps 753 mmHg 71%
    22:00 +5°C° 0 mm 4 mps 753 mmHg 72%
    23:00 +4°C° 0 mm 4 mps 754 mmHg 73%

    26 September, Wednesday

    Time Temperature Precipitation Wind Pressure Humidity
    00:00 +4°C° 0 mm 4 mps 754 mmHg 74%
    01:00 +4°C° 0 mm 3 mps 754 mmHg 75%
    02:00 +3°C° 0 mm 3 mps 755 mmHg 76%
    03:00 +3°C° 0 mm 3 mps 755 mmHg 76%
    04:00 +3°C° 0 mm 3 mps 755 mmHg 75%
    05:00 +3°C° 0 mm 3 mps 755 mmHg 74%
    06:00 +4°C° 0 mm 4 mps 755 mmHg 71%
    07:00 +5°C° 0 mm 4 mps 755 mmHg 69%
    08:00 +5°C° 0 mm 5 mps 755 mmHg 67%
    09:00 +7°C° 0 mm 5 mps 755 mmHg 62%
    10:00 +9°C° 0 mm 6 mps 755 mmHg 57%
    11:00 +10°C° 0 mm 7 mps 755 mmHg 52%
    12:00 +11°C° 0 mm 7 mps 754 mmHg 50%
    13:00 +11°C° 0 mm 7 mps 754 mmHg 49%
    14:00 +12°C° 0 mm 7 mps 753 mmHg 47%
    15:00 +11°C° 0 mm 6 mps 753 mmHg 49%
    16:00 +12°C° 0 mm 5 mps 752 mmHg 52%
    17:00 +11°C° 0 mm 4 mps 751 mmHg 54%
    18:00 +11°C° 0 mm 4 mps 751 mmHg 55%
    19:00 +10°C° 0 mm 4 mps 751 mmHg 55%
    20:00 +10°C° 0 mm 4 mps 751 mmHg 56%
    21:00 +9°C° 0 mm 5 mps 751 mmHg 55%
    22:00 +9°C° 0 mm 5 mps 750 mmHg 55%
    23:00 +9°C° 0 mm 6 mps 750 mmHg 54%

    27 September, Thursday

    Time Temperature Precipitation Wind Pressure Humidity
    00:00 +9°C° 0 mm 6 mps 750 mmHg 53%
    01:00 +9°C° 0 mm 6 mps 749 mmHg 53%
    02:00 +9°C° 0 mm 6 mps 749 mmHg 52%
    03:00 +9°C° 0 mm 6 mps 749 mmHg 51%
    04:00 +9°C° 0 mm 6 mps 748 mmHg 50%
    05:00 +9°C° 0 mm 6 mps 748 mmHg 48%
    06:00 +9°C° 0 mm 6 mps 747 mmHg 49%
    07:00 +9°C° 0 mm 7 mps 747 mmHg 50%
    08:00 +9°C° 0 mm 7 mps 747 mmHg 51%
    09:00 +11°C° 0 mm 7 mps 747 mmHg 49%
    10:00 +12°C° 0 mm 8 mps 747 mmHg 46%
    11:00 +15°C° 0 mm 8 mps 746 mmHg 44%
    12:00 +16°C° 0 mm 8 mps 746 mmHg 43%
    13:00 +17°C° 0 mm 7 mps 745 mmHg 42%
    14:00 +18°C° 0 mm 7 mps 745 mmHg 41%
    15:00 +17°C° 0 mm 6 mps 744 mmHg 44%
    16:00 +16°C° 0 mm 5 mps 744 mmHg 48%
    17:00 +16°C° 0 mm 5 mps 743 mmHg 51%
    18:00 +15°C° 0 mm 5 mps 743 mmHg 52%
    19:00 +13°C° 0 mm 5 mps 743 mmHg 53%
    20:00 +12°C° 0 mm 5 mps 743 mmHg 53%
    21:00 +11°C° 0 mm 6 mps 742 mmHg 51%
    22:00 +11°C° 0 mm 6 mps 742 mmHg 49%
    23:00 +10°C° 0 mm 6 mps 742 mmHg 47%
    Show more